Preview of NWS' New Version of Forecast
This preview is not operational and should not be used for support decisions.

Regional Weather Roundup (RWR)

Issued by National Weather Service (NWS)

                            
000
ASUS43 KDMX 220801
RWRIA 

WEATHER ROUNDUP FOR IOWA
NATIONAL WEATHER SERVICE DES MOINES IA
300 AM CDT MON APR 22 2019

NOTE: "FAIR" INDICATES FEW OR NO CLOUDS BELOW 12,000 FEET WITH NO
SIGNIFICANT WEATHER AND/OR OBSTRUCTIONS TO VISIBILITY.

* - THESE STATIONS ARE NOT NWS STATIONS...THUS NOT UNDER NWS
QUALITY CONTROL.  THEY ALSO DO NOT REPORT WEATHER SUCH 
AS PRECIPITATION OR FOG.  

IAZ001>003-012>014-020>022-031>034-043>046-220900-
   NORTHWEST IOWA
  
CITY           SKY/WX    TMP DP  RH WIND       PRES   REMARKS
CARROLL *      CLOUDY    68  48  49 S16       29.76F                  
CHEROKEE *     CLOUDY    60  50  69 N7        29.76F                  
DENISON *      CLOUDY    66  48  52 S14G21    29.75F                  
LE MARS *        N/A    N/A N/A N/A MISG        N/A                   
SHELDON *      RAIN      48  48 100 NE21G26   29.79F                  
SIOUX CITY     CLOUDY    57  52  83 W9        29.76R                  
SPENCER        LGT RAIN  52  47  83 N21G29    29.80R                  
STORM LAKE *   CLOUDY    64  46  52 S14       29.73S                  
$$
 
IAZ055>058-069>071-079>083-090>094-220900-
   SOUTHWEST IOWA
  
CITY           SKY/WX    TMP DP  RH WIND       PRES   REMARKS
ATLANTIC *     CLOUDY    68  48  49 S8G17     29.76F                  
AUDUBON *      CLOUDY    66  48  52 CALM      29.79F                  
CLARINDA *     CLOUDY    66  48  52 S10       29.80F                  
COUNCIL BLFS * CLOUDY    66  50  55 SE6       29.73F                  
CRESTON *      CLOUDY    64  48  55 S15       29.81F                  
HARLAN  *      CLOUDY    68  48  49 S12       29.76S                  
LAMONI         CLOUDY    65  47  52 S9        29.85F                  
RED OAK *      CLOUDY    64  50  59 SE9       29.76F                  
SHENANDOAH *   CLOUDY    66  50  55 S12       29.76S                  
$$
 
IAZ047>049-059>061-072>074-084-220900-
   CENTRAL IOWA
  
CITY           SKY/WX    TMP DP  RH WIND       PRES   REMARKS
AMES           MOCLDY    63  47  55 SE10      29.80F                  
ANKENY *       CLOUDY    68  46  45 S13       29.82F                  
BOONE *        MOCLDY    68  48  49 S13G21    29.78F                  
CHARITON *     MOCLDY    66  46  48 S15       29.84F                  
DES MOINES     MOCLDY    67  45  45 S14       29.81F                  
GRINNELL*      MOCLDY    63  46  54 SE15      29.87F                  
KNOXVILLE *    MOCLDY    66  45  45 S12G18    29.84F                  
MARSHALLTOWN   CLOUDY    65  47  52 S14       29.82F                  
NEWTON *       CLOUDY    64  46  52 S16       29.83F                  
PELLA *        CLOUDY    65  46  49 SE10      29.86F                  
PERRY *        FAIR      64  45  49 S13       29.78F                  
$$
 
IAZ004>006-015-016-023>025-035-036-220900-
   NORTH CENTRAL IOWA
  
CITY           SKY/WX    TMP DP  RH WIND       PRES   REMARKS
ALGONA *       CLOUDY    66  48  52 S15       29.75F                  
CLARION *      CLOUDY    64  46  52 S14G20    29.78F                  
ESTHERVILLE    CLOUDY    49  45  86 N21G29    29.81S                  
FORT DODGE *   CLOUDY    67  48  50 S14       29.76F                  
MASON CITY     CLOUDY    60  50  69 SE13      29.82F                  
FOREST CITY *  CLOUDY    63  46  55 SE12      29.80F                  
IOWA FALLS *   FAIR      63  49  59 SE14      29.82F                  
$$

IAZ007>011-017>019-026>030-037>042-050>054-066-220900-
   NORTHEAST IOWA
  
CITY           SKY/WX    TMP DP  RH WIND       PRES   REMARKS
CEDAR RAPIDS   FAIR      62  47  57 S14       29.89S                  
CHARLES CITY * MOCLDY    61  46  59 SE13      29.84F                  
CLINTON *      FAIR      61  46  57 S12       29.96F                  
DECORAH *      FAIR      63  45  51 S10       29.86S                  
DUBUQUE        FAIR      62  44  51 S12G28    29.93S                  
MONTICELLO *   FAIR      63  46  55 SE14      29.91S                  
OELWEIN *      FAIR      59  48  67 SE13      29.87F                  
WATERLOO       FAIR      63  46  54 SE14      29.84F                  
$$
 
IAZ064-065-067-068-078-220900-
   EAST CENTRAL IOWA
  
CITY           SKY/WX    TMP DP  RH WIND       PRES   REMARKS
DAVENPORT      FAIR      65  44  46 S17       29.96F                  
IOWA CITY      FAIR      61  47  59 SE8       29.93S                  
MT. PLEASANT * MOCLDY    64  50  59 S9        29.94S                  
MUSCATINE *    MOCLDY    64  46  52 S8        29.94S                  
QUAD CITIES    FAIR      63  46  54 S7        29.94F                  
$$
 
IAZ062-063-075>077-085>089-095>099-220900-
   SOUTHEAST IOWA
  
CITY           SKY/WX    TMP DP  RH WIND       PRES   REMARKS
BURLINGTON     CLOUDY    65  48  54 S8        29.95S                  
FAIRFIELD *    CLOUDY    66  45  45 S10       29.92R                  
FORT MADISON * CLOUDY    64  50  59 S9        29.95F                  
KEOKUK *       CLOUDY    68  48  49 S8        29.94S                  
OSKALOOSA *    FAIR      58  45  60 SE10      29.89F                  
CENTERVILLE *  FAIR      66  48  52 S10       29.91F                  
OTTUMWA        MOCLDY    66  45  46 S15       29.89F                  
WASHINGTON *   CLOUDY    66  46  48 S15       29.93S                  
$$

ABBREVIATIONS USED IN REMARKS
   TC - TEMPERATURES IN CELSIUS
  WCI - WIND CHILL INDEX
   HX - HEAT INDEX
  VSB - VISIBILITY  
$$